Погода в Скрипине

Россия / Владимирская область     55°36′07″N   41°29′58″E
темп.,
°C
ветер,
м/с
пор.,
м/с
влажн.,
%
обл.,
%
осадки,
мм/ч
давл.,
гПа
погр.,
м
5 марта, пт
пт500:00−6ссз2294100 0.0 100038
03:00−8сз2394100 0.0 100265
06:00−10сз359665 0.1 100493
09:00−8сз369133 0.1 1006231
12:00−3з358426 0.0 1006733
15:00−2з477661 0.5 1008984
18:00−7з358769 0.2 1009117
21:00−10зсз369135 0.2 1012131
6 марта, сб
сб600:00−12сз23950 0.0 101429
03:00−14зсз12906 0.0 101620
06:00−15з12900 0.0 101620
09:00−11зюз24920 0.0 1016146
12:00−6з248310 0.0 1016584
15:00−5зсз357952 0.2 1015965
18:00−10сз239079 0.1 101448
21:00−13зсз229240 0.1 101520
7 марта, вс
вс700:00−15зюз23930 0.0 101423
03:00−14ююз36950 0.0 1012122
06:00−12ююз4119454 0.0 1009272
09:00−8ююз7158977 0.1 1004658
12:00−6ююз81488100 0.4 1000898
15:00−4ююз81592100 1.8 9961226
18:00−4юз61295100 1.7 993838
21:00−7зсз41381100 2.1 995547
8 марта, пн
пн800:00−10зюз4128333 0.0 996362
03:00−10юз5139244 0.1 996439
06:00−7юз61393100 1.0 994911
09:00−6зюз5992100 1.4 993730
12:00−5з5787100 0.4 995859
15:00−8зсз7118399 0.8 997922
18:00−8зсз61191100 0.1 10001050
21:00−11зсз5118998 0.3 1004615
9 марта, вт
вт900:00−14зсз499591 0.0 1007292
03:00−17зсз379791 0.1 1009170
06:00−18сз379887 0.0 1011140
09:00−16сз369392 0.0 1013325
12:00−13сз4685100 0.0 1014676
15:00−12сз4686100 0.1 1016676
18:00−16сз3893100 0.0 1016312
21:00−19сз389792 0.1 1019228